{"data":{"norad_id":65203,"intl_designator":"2025-176F","name":"STARLINK-34914","alt_names":[],"object_type":"PAYLOAD","status":"ACTIVE","operator":null,"country":"US","launch_date":"2025-08-14","launch_site_code":"AFETR","launch_vehicle":null,"mission":null,"orbit_class":"UNKNOWN","rcs_meters":null,"size_class":null,"mass_kg":null,"dimensions":null,"purposes":["comms"],"wikipedia_slug":null,"has_3d_model":false,"image_url":null,"decayed_at":null,"tle_current":{"epoch":"2026-05-25T01:23:40.884576Z","epoch_age_seconds":66112,"freshness":"FRESH","line1":"1 65203U 25176F   26145.05811209  .00029929  00000+0  89307-3 0  9991","line2":"2 65203  53.1569 157.2370 0001142  91.5156 268.5978 15.34411650 44820","mean_motion":15.3441165,"eccentricity":0.0001142,"inclination_deg":53.1569,"raan_deg":157.237,"arg_perigee_deg":91.5156,"mean_anomaly_deg":268.5978,"bstar":0.00089307,"rev_number":4482,"period_min":93.847045543482,"perigee_km":461.88739416992,"apogee_km":463.4498341722,"semimajor_km":6840.8056141711,"source":"CELESTRAK","updated_at":"2026-05-25T13:38:20.718429Z"}}}